Charlottetown, Prince Edward Island

6:23 PM ADT on April 27, 2017 (GMT -0300)
Charlottetown

Weather History for CYYG - August, 2014

Change the Weather History Date:

Wednesday, August 20, 2014

  Actual Average Record
Temperature  
Mean Temperature 63 °F -  
Max Temperature 68 °F 67 °F 83 °F (2015)
Min Temperature 58 °F 51 °F 50 °F (1997)
Degree Days  
Heating Degree Days 2    
Growing Degree Days 13 (Base 50)    
Moisture  
Dew Point 58 °F    
Average Humidity 83    
Maximum Humidity 100    
Minimum Humidity 64    
Precipitation  
Precipitation 0.00 in 0.12 in - ()
Sea Level Pressure  
Sea Level Pressure 29.94 in    
Wind  
Wind Speed 6 mph ()    
Max Wind Speed 13 mph    
Max Gust Speed 22 mph    
Visibility 15.0 miles    
Events      
Averages and records for this station are not official NWS values.
T = Trace of Precipitation, MM = Missing Value Source: Averaged Metar Reports

Daily Weather History Graph

Daily Weather History Graph

Search for Another Location

Airport or City:

Trip Planner

Search our weather history database for the weather conditions in past years. The results will help you decide how hot, cold, wet, or windy it might be!

Date:

Astronomy

Aug. 20, 2014 Rise Set
Actual Time 6:17 AM ADT 8:13 PM ADT
Civil Twilight 5:45 AM ADT 8:45 PM ADT
Nautical Twilight 5:05 AM ADT 9:24 PM ADT
Astronomical Twilight 4:21 AM ADT 10:08 PM ADT
Moon 1:47 AM ADT (8/20) 5:00 PM ADT (8/20)
Length of Visible Light 15h 00m
Length of Day
13h 55m
Waning Crescent, 21% of the Moon is Illuminated
Aug 20
Waning Crescent
Aug 25
New
Sep 2
First Quarter
Sep 8
Full
Sep 15
Last Quarter

Hourly Weather History & Observations

Time (ADT) Temp. Dew Point Humidity Pressure Visibility Wind Dir Wind Speed Gust Speed Precip Events Conditions
12:00 AM 62.6 °F 60.8 °F 94% 29.81 in 15.0 mi West 6.9 mph - N/A   Mostly Cloudy
1:00 AM 62.6 °F 60.8 °F 94% 29.82 in 15.0 mi West 5.8 mph - N/A   Mostly Cloudy
2:00 AM 60.8 °F 59.0 °F 94% 29.83 in 15.0 mi West 4.6 mph - N/A   Scattered Clouds
3:00 AM 60 °F 59 °F 94% 29.83 in 15 mi West 4.6 mph - -   Partly Cloudy
3:00 AM 59.0 °F 59.0 °F 100% 29.82 in 15.0 mi West 4.6 mph - N/A   Scattered Clouds
4:00 AM 59.0 °F 59.0 °F 100% 29.83 in 15.0 mi WSW 5.8 mph - N/A   Partly Cloudy
5:00 AM 60.8 °F 59.0 °F 94% 29.84 in 15.0 mi West 8.1 mph - N/A   Partly Cloudy
6:00 AM 59.0 °F 57.2 °F 94% 29.86 in 15.0 mi West 5.8 mph - N/A   Partly Cloudy
7:00 AM 60.8 °F 57.2 °F 88% 29.88 in 15.0 mi West 5.8 mph - N/A   Mostly Cloudy
8:00 AM 62.6 °F 60.8 °F 94% 29.90 in 15.0 mi WNW 4.6 mph - N/A   Mostly Cloudy
9:00 AM 64 °F 59 °F 80% 29.92 in 15 mi NNW 9.2 mph - -   Partly Cloudy
9:00 AM 64.4 °F 59.0 °F 83% 29.92 in 15.0 mi North 8.1 mph - N/A   Mostly Cloudy
10:00 AM 64.4 °F 59.0 °F 83% 29.94 in 15.0 mi NW 5.8 mph 18.4 mph N/A   Mostly Cloudy
11:00 AM 66.2 °F 55.4 °F 68% 29.95 in 15.0 mi NW 12.7 mph 18.4 mph N/A   Mostly Cloudy
12:00 PM 66.2 °F 57.2 °F 73% 29.97 in 15.0 mi NW 9.2 mph 18.4 mph N/A   Mostly Cloudy
1:00 PM 66.2 °F 59.0 °F 78% 29.98 in 15.0 mi WNW 8.1 mph - N/A   Mostly Cloudy
2:00 PM 66.2 °F 57.2 °F 73% 29.99 in 15.0 mi NNW 9.2 mph 17.3 mph N/A   Mostly Cloudy
3:00 PM 67 °F 58 °F 64% 29.99 in 15 mi NNW 11.5 mph - -   Mostly Cloudy
3:00 PM 66.2 °F 57.2 °F 73% 29.99 in 15.0 mi NNW 9.2 mph 20.7 mph N/A   Mostly Cloudy
4:00 PM 68.0 °F 55.4 °F 64% 30.00 in 15.0 mi North 10.4 mph 21.9 mph N/A   Mostly Cloudy
5:00 PM 66.2 °F 55.4 °F 68% 30.01 in 15.0 mi North 12.7 mph - N/A   Mostly Cloudy
6:00 PM 66.2 °F 55.4 °F 68% 30.02 in 15.0 mi North 10.4 mph - N/A   Mostly Cloudy
7:00 PM 64.4 °F 55.4 °F 73% 30.04 in 15.0 mi North 9.2 mph - N/A   Mostly Cloudy
9:00 PM 60 °F 56 °F 81% 30.06 in 15 mi NW 2.3 mph - -   Scattered Clouds
9:00 PM 60.8 °F 55.4 °F 82% 30.06 in 15.0 mi NW 2.3 mph - N/A   Partly Cloudy
10:00 PM 59.0 °F 55.4 °F 88% 30.07 in 15.0 mi NW 3.5 mph - N/A   Mostly Cloudy
11:00 PM 59.0 °F 55.4 °F 88% 30.06 in 15.0 mi NW 3.5 mph - N/A   Mostly Cloudy